Date String (YYYY-MM-DD hh:mm:ss) UTC,Instrument flags,Ambient pressure (hPa),Sample flow (lpm),Bypass flow (lpm),Sample temperature (°C),Ambient temperature (°C),ASC tube jacket temperature (°C),LED temperature (°C),Box temperature (°C),Sample RH (%),Span deviation,Mass concentration (μg/m³),Mass concentration (μg/m³),Mass concentration (μg/m³)
DateTimeUTC,F1_M11,P_M11,Q1_M11,Q2_M11,T1_M11,T2_M11,T3_M11,T4_M11,T5_M11,U1_M11,ZSPAN_M11,X0_M11,X2_M11,X1_M11
2022-09-28 03:00:00,,0834.1,5.00,0.00,30.4,26.9,00.0,39.0,32.1,18.9,0000.0,0011.74,0004.13,0003.32
2022-09-28 03:01:00,,0834.1,5.00,0.00,30.3,27.1,00.0,39.0,32.0,19.0,0000.0,0009.87,0003.96,0003.21
2022-09-28 03:02:00,,0834.1,5.00,0.00,30.2,27.4,00.0,38.9,31.9,19.1,0000.0,0009.37,0003.85,0003.16
2022-09-28 03:03:00,,0834.1,5.00,0.00,30.2,27.7,00.0,38.9,31.9,19.2,0000.0,0009.68,0003.78,0003.13
2022-09-28 03:04:00,,0834.1,5.01,0.00,30.2,28.0,00.0,38.9,31.9,19.2,0000.0,0009.59,0003.71,0003.05
2022-09-28 03:05:00,,0834.1,4.98,0.00,30.2,28.2,00.0,38.9,32.0,19.2,0000.0,0009.51,0003.60,0002.97
2022-09-28 03:06:00,,0834.1,5.01,0.00,30.2,28.4,00.0,38.9,32.0,19.1,0000.0,0009.05,0003.53,0002.88
2022-09-28 03:07:00,,0834.1,4.99,0.00,30.2,28.5,00.0,38.9,32.0,18.9,0000.0,0008.80,0003.48,0002.81
2022-09-28 03:08:00,,0834.1,5.01,0.00,30.2,28.6,00.0,38.9,32.0,18.8,0000.0,0008.41,0003.40,0002.78
2022-09-28 03:09:00,,0834.1,4.99,0.00,30.2,28.7,00.0,38.9,32.0,18.7,0000.0,0007.94,0003.35,0002.75
2022-09-28 03:10:00,,0834.0,4.99,0.00,30.2,28.8,00.0,38.9,32.0,18.8,0000.0,0008.45,0003.33,0002.72
2022-09-28 03:11:00,,0834.1,5.01,0.00,30.2,28.9,00.0,38.9,32.1,18.7,0000.0,0009.36,0003.34,0002.70
2022-09-28 03:12:00,,0834.1,4.99,0.00,30.2,28.9,00.0,38.9,32.1,18.8,0000.0,0009.22,0003.34,0002.71
2022-09-28 03:13:00,,0834.0,5.01,0.00,30.2,29.0,00.0,38.9,32.1,18.8,0000.0,0009.12,0003.35,0002.74
2022-09-28 03:14:00,,0834.1,4.99,0.00,30.3,29.0,00.0,38.9,32.1,18.7,0000.0,0009.05,0003.37,0002.78
2022-09-28 03:15:00,,0834.1,4.99,0.00,30.3,29.1,00.0,38.9,32.2,18.8,0000.0,0009.39,0003.41,0002.84
2022-09-28 03:16:00,,0834.1,5.02,0.00,30.3,29.1,00.0,38.9,32.2,18.7,0000.0,0010.29,0003.47,0002.91
2022-09-28 03:17:00,,0834.0,5.00,0.00,30.3,29.1,00.0,39.0,32.2,18.6,0000.0,0010.09,0003.51,0002.94
2022-09-28 03:18:00,,0834.1,5.00,0.00,30.3,29.1,00.0,39.0,32.2,18.6,0000.0,0010.55,0003.55,0002.97
2022-09-28 03:19:00,,0834.1,5.01,0.00,30.4,29.2,00.0,39.0,32.2,18.5,0000.0,0011.25,0003.52,0002.97
2022-09-28 03:20:00,,0834.1,5.00,0.00,30.4,29.2,00.0,39.0,32.3,18.5,0000.0,0011.70,0003.51,0002.95
2022-09-28 03:21:00,,0834.1,5.00,0.00,30.4,29.2,00.0,39.0,32.3,18.3,0000.0,0011.40,0003.48,0002.94
2022-09-28 03:22:00,,0834.0,5.00,0.00,30.4,29.3,00.0,39.1,32.3,18.2,0000.0,0010.22,0003.45,0002.92
2022-09-28 03:23:00,,0834.1,5.01,0.00,30.4,29.3,00.0,39.1,32.3,18.2,0000.0,0009.95,0003.41,0002.88
2022-09-28 03:24:00,,0834.1,4.99,0.00,30.5,29.3,00.0,39.1,32.4,18.3,0000.0,0009.84,0003.37,0002.81
2022-09-28 03:25:00,,0834.1,4.99,0.00,30.5,29.3,00.0,39.1,32.4,18.4,0000.0,0009.46,0003.34,0002.76
2022-09-28 03:26:00,,0834.1,5.01,0.00,30.5,29.4,00.0,39.1,32.4,18.4,0000.0,0008.92,0003.31,0002.71
2022-09-28 03:27:00,,0834.1,4.99,0.00,30.5,29.0,00.0,39.1,32.4,18.2,0000.0,0008.21,0003.24,0002.64
2022-09-28 03:28:00,,0834.0,5.00,0.00,30.5,27.6,00.0,39.1,32.3,18.0,0000.0,0007.59,0003.18,0002.57
2022-09-28 03:29:00,,0834.1,5.00,0.00,30.5,27.0,00.0,39.0,32.2,18.1,0000.0,0006.78,0003.09,0002.51
2022-09-28 03:30:00,,0834.1,4.99,0.00,30.4,27.1,00.0,39.0,32.0,18.1,0000.0,0005.65,0003.10,0002.49
2022-09-28 03:31:00,,0834.1,4.99,0.00,30.3,27.4,00.0,39.0,32.0,18.4,0000.0,0004.94,0003.13,0002.49
2022-09-28 03:32:00,,0834.1,4.99,0.00,30.2,27.6,00.0,39.0,32.0,19.0,0000.0,0004.89,0003.12,0002.48
2022-09-28 03:33:00,,0834.1,5.00,0.00,30.2,27.9,00.0,38.9,32.0,19.4,0000.0,0004.87,0003.14,0002.50
2022-09-28 03:34:00,,0834.1,5.00,0.00,30.2,28.1,00.0,38.9,32.0,19.6,0000.0,0004.95,0003.16,0002.52
2022-09-28 03:35:00,,0834.1,5.00,0.00,30.2,28.3,00.0,38.9,32.0,19.6,0000.0,0005.01,0003.16,0002.54
2022-09-28 03:36:00,,0834.1,5.01,0.00,30.2,28.5,00.0,38.9,32.0,19.6,0000.0,0005.23,0003.19,0002.59
2022-09-28 03:37:00,,0834.1,5.00,0.00,30.2,28.6,00.0,38.9,32.0,19.5,0000.0,0005.27,0003.19,0002.61
2022-09-28 03:38:00,,0834.1,5.00,0.00,30.2,28.7,00.0,38.9,32.0,19.4,0000.0,0005.47,0003.26,0002.65
2022-09-28 03:39:00,,0834.1,4.99,0.00,30.2,28.8,00.0,38.9,32.0,19.3,0000.0,0005.84,0003.30,0002.72
2022-09-28 03:40:00,,0834.2,5.00,0.00,30.2,28.9,00.0,38.9,32.1,19.2,0000.0,0006.16,0003.37,0002.80
2022-09-28 03:41:00,,0834.2,5.00,0.00,30.2,28.9,00.0,38.9,32.1,19.2,0000.0,0006.07,0003.41,0002.86
2022-09-28 03:42:00,,0834.2,4.99,0.00,30.2,29.0,00.0,38.9,32.1,19.2,0000.0,0006.10,0003.44,0002.93
2022-09-28 03:43:00,,0834.2,5.00,0.00,30.3,29.0,00.0,38.9,32.1,19.2,0000.0,0006.91,0003.51,0002.99
2022-09-28 03:44:00,,0834.1,5.01,0.00,30.3,29.1,00.0,38.9,32.2,19.2,0000.0,0007.64,0003.57,0003.04
2022-09-28 03:45:00,,0834.1,5.00,0.00,30.3,29.1,00.0,39.0,32.2,19.2,0000.0,0007.64,0003.58,0003.07
2022-09-28 03:46:00,,0834.1,5.00,0.00,30.3,29.1,00.0,39.0,32.2,19.1,0000.0,0008.32,0003.63,0003.12
2022-09-28 03:47:00,,0834.1,5.01,0.00,30.4,29.2,00.0,39.0,32.3,19.0,0000.0,0009.31,0003.70,0003.14
2022-09-28 03:48:00,,0834.1,4.99,0.00,30.4,29.2,00.0,39.0,32.3,19.0,0000.0,0009.43,0003.76,0003.17
2022-09-28 03:49:00,,0834.1,4.99,0.00,30.4,29.2,00.0,39.0,32.3,19.0,0000.0,0009.91,0003.75,0003.19
2022-09-28 03:50:00,,0834.1,5.01,0.00,30.4,29.3,00.0,39.1,32.3,19.1,0000.0,0010.22,0003.80,0003.21
2022-09-28 03:51:00,,0834.0,4.99,0.00,30.5,29.3,00.0,39.1,32.3,19.1,0000.0,0011.40,0003.87,0003.23
2022-09-28 03:52:00,,0834.1,4.99,0.00,30.5,29.3,00.0,39.1,32.4,19.0,0000.0,0011.90,0003.93,0003.27
2022-09-28 03:53:00,,0834.1,5.01,0.00,30.5,29.3,00.0,39.1,32.4,19.2,0000.0,0012.06,0003.99,0003.30
2022-09-28 03:54:00,,0834.0,4.98,0.00,30.5,29.4,00.0,39.1,32.4,19.2,0000.0,0012.25,0004.04,0003.32
2022-09-28 03:55:00,,0834.1,5.01,0.00,30.5,29.4,00.0,39.1,32.4,19.2,0000.0,0012.94,0004.17,0003.40
2022-09-28 03:56:00,,0834.0,4.99,0.00,30.6,28.8,00.0,39.1,32.4,19.2,0000.0,0013.93,0004.37,0003.54
2022-09-28 03:57:00,,0834.0,5.00,0.00,30.5,27.3,00.0,39.1,32.3,19.2,0000.0,0014.44,0004.52,0003.63
2022-09-28 03:58:00,,0834.0,5.00,0.00,30.5,27.0,00.0,39.1,32.2,19.3,0000.0,0014.32,0004.64,0003.73
2022-09-28 03:59:00,,0834.0,4.99,0.00,30.4,27.1,00.0,39.0,32.1,19.4,0000.0,0014.67,0004.78,0003.80
